Home   Weather   Ramat Gan   Past weeks

Flag for Israel Past Weather in Ramat Gan, Israel — Yesterday and Last 2 Weeks

Now
63 °F

Sunny.


Feels Like: 63 °F
Forecast: 51 / 61 °F
Wind: 7 mph from Northwest

Location: Dov Airport

Current Time: Jan 20, 2017 at 4:16:55 pm

Latest Report: Jan 20, 2017 at 3:50 pm


Visibility: 10 mi

Pressure: 30.12 "Hg

Humidity: 59%

Dew Point: 48 °F

Location of Ramat GanLocation

Past Weather in Ramat Gan — Graph

°F

Ramat Gan Temperature Yesterday

Maximum temperature yesterday: 64 °F (at 10:50 am)
Minimum temperature yesterday: 55 °F (at 3:50 am)
Average temperature yesterday: 60 °F

High & Low Weather Summary for the Past Weeks

 TemperatureHumidityPressure
High70 °F (Jan 6, 2:50 pm)94% (Jan 15, 5:30 am)30.24 "Hg (Jan 15, 5:30 am)
Low46 °F (Jan 10, 6:50 am)28% (Jan 10, 12:50 pm)29.89 "Hg (Jan 14, 11:50 pm)
Average59 °F62%30.06 "Hg
* Reported Jan 5 2:50 pm — Jan 20 2:50 pm, Ramat Gan, Weather by CustomWeather, © 2017

Note: Actual official high and low records may vary slightly from our data, if they occured in-between our weather recording intervals... More about our weather records

Advertising

Ramat Gan Weather History for the Previous 24 Hours

Scroll right to see more
 ConditionsComfort  
Time TempWeatherWind HumidityBarometerVisibility
2:50 pm
Fri, Jan 20
64 °FSunny.8 mph60%30.12 "Hg10 mi
1:50 pm64 °FSunny.7 mph56%30.12 "Hg10 mi
12:50 pm64 °FSunny.7 mph56%30.15 "Hg10 mi
11:50 am63 °FPassing clouds.7 mph56%30.18 "HgN/A
10:50 am64 °FPassing clouds.5 mph56%30.21 "HgN/A
9:50 am63 °FSunny.5 mph59%30.21 "Hg10 mi
8:50 am57 °FPassing clouds.7 mph72%30.21 "HgN/A
7:50 am54 °FPassing clouds.7 mph82%30.21 "Hg6 mi
6:50 am52 °FPassing clouds.6 mph82%30.21 "Hg4 mi
5:50 am52 °FPassing clouds.7 mph82%30.18 "Hg5 mi
5:30 am52 °FClear.7 mph82%30.18 "Hg5 mi
10:50 pm
Thu, Jan 19
55 °FClear.5 mph77%30.21 "Hg10 mi
9:50 pm55 °FClear.5 mph77%30.21 "Hg10 mi
8:50 pm57 °FClear.5 mph72%30.21 "Hg10 mi
7:50 pm59 °FClear.3 mph68%30.21 "Hg10 mi
6:50 pm59 °FClear.5 mph68%30.21 "Hg10 mi
5:50 pm61 °FClear.9 mph63%30.18 "Hg10 mi
4:50 pm63 °FSunny.12 mph59%30.18 "Hg10 mi
Weather by CustomWeather, © 2017

See weather overviewHow to use our weather pages